Dewpoint
72 71 71 70 69 70 70 70 71 68 66 66 66 64 62 61 58 55 56 58 60 64 68 63 65 69 69 68 69 69 69 70 72 70 70 70 70 70 70 70 70 70 70 69 70 70 70 71 71 72 72 72 73 73 72 72 72 72 72 72 72 72 72 71 71 70 70 71 70 70 71 72 72 72
71 72 71 71 71 71 71 71 71 70 68 68 67 65 64 62 59 58 54 56 60 63 65 66 65 68 69 70 71 70 70 72 72 71 70 70 69 70 69 69 69 69 69 69 68 68 69 69 69 70 70 70 71 71 71 71 71 71 71 71 72 71 72 71 70 70 70 70 70 70 70 71 71 71
72 71 71 71 70 70 70 70 70 71 69 69 68 68 65 64 62 61 58 57 60 65 63 66 69 69 70 71 71 71 71 72 72 71 70 70 71 71 71 70 69 69 69 68 68 68 68 67 67 68 68 69 69 70 70 70 71 71 71 71 71 70 70 69 69 69 69 69 70 70 70 71 71 70
72 71 71 71 71 71 70 69 70 70 70 68 68 68 67 65 65 64 61 60 62 65 66 67 67 68 70 71 71 71 71 72 74 71 71 72 73 72 71 71 70 69 68 68 68 67 66 65 66 67 68 68 69 70 70 71 71 70 69 69 69 68 68 67 68 68 68 69 69 69 70 70 70 70
72 72 71 71 71 71 71 70 70 70 71 70 69 68 67 66 66 65 63 62 64 65 66 67 68 70 71 71 70 70 71 71 72 73 72 73 73 73 73 72 71 70 69 68 68 67 67 66 66 67 67 68 69 70 69 69 68 67 67 67 65 65 66 66 67 67 68 68 68 69 69 69 70 70
72 72 71 71 71 71 71 71 71 71 71 71 70 69 70 68 68 66 65 64 63 65 66 67 68 69 71 70 69 70 71 71 72 72 73 73 73 73 74 74 74 71 70 69 68 68 67 66 66 66 67 67 68 68 68 67 65 66 66 65 64 64 65 65 65 66 66 66 67 67 68 69 69 69
72 72 71 71 71 71 71 72 72 71 71 71 71 70 70 69 69 69 67 65 65 65 67 67 68 68 69 70 71 70 70 71 71 72 73 74 74 74 74 74 74 72 71 70 69 68 68 67 66 65 65 67 66 66 66 65 64 64 63 62 63 63 63 62 63 63 64 63 64 65 65 66 66 67
72 72 71 71 71 71 71 71 71 71 71 70 71 70 70 70 70 70 70 68 67 66 67 68 68 68 68 69 69 71 71 72 73 72 73 74 74 74 74 75 75 73 71 70 68 68 68 67 66 66 67 66 65 65 65 64 62 61 61 60 61 60 60 60 60 61 61 61 61 62 63 64 65 65
72 72 72 72 71 71 71 71 71 71 71 71 71 70 70 70 70 70 71 71 69 68 68 69 68 68 68 69 70 70 71 72 71 71 72 73 73 74 74 74 74 72 71 71 70 70 70 70 69 68 67 66 65 64 63 61 60 59 58 58 59 60 59 59 59 59 59 59 60 61 62 62 63 63
72 72 72 72 72 71 71 71 71 71 71 71 71 70 70 70 70 69 70 70 70 70 70 69 69 68 69 69 68 69 71 71 72 72 72 72 72 72 72 73 74 74 74 74 75 73 72 71 69 68 67 66 64 62 61 61 60 59 58 56 57 58 57 57 57 57 58 57 58 58 60 60 61 62
73 72 72 72 72 72 72 72 72 71 71 71 71 71 71 70 69 70 70 70 69 70 69 69 69 70 68 69 70 70 70 71 71 71 71 70 69 70 70 72 74 74 75 74 73 72 72 71 71 67 67 64 63 61 61 61 60 59 58 57 57 56 56 56 56 55 56 56 56 57 57 57 59 61
73 73 73 72 72 72 72 72 72 72 72 71 71 71 70 70 70 70 70 69 69 69 69 68 69 67 67 68 69 69 69 69 69 69 69 70 70 71 70 70 73 73 73 74 73 72 72 72 71 69 69 66 63 62 62 63 62 60 58 58 59 58 56 55 55 55 55 55 55 56 57 57 57 58
73 73 73 73 73 73 75 75 74 74 74 72 71 71 70 71 70 70 70 70 68 68 68 69 68 67 69 69 69 69 67 68 70 70 69 69 70 69 70 71 71 72 72 72 73 73 73 73 73 73 70 68 64 63 63 63 62 60 58 57 58 57 56 55 55 55 54 54 54 54 55 56 56 56
72 72 73 73 75 76 75 73 72 71 72 74 73 72 71 71 71 70 70 69 69 69 69 69 69 69 69 69 69 69 68 69 68 70 69 69 70 69 68 68 69 71 72 72 72 72 73 73 72 72 68 65 64 63 62 61 60 59 58 58 57 57 56 56 55 54 54 54 54 54 54 54 55 55
72 72 72 72 74 76 77 75 72 71 70 70 71 72 74 74 71 70 70 70 70 69 69 69 69 69 69 69 69 70 71 69 70 69 67 70 68 67 66 67 69 70 72 70 70 71 72 71 71 70 67 64 63 62 61 60 59 58 58 58 57 57 57 57 56 55 54 54 54 54 53 54 54 55
72 72 72 72 72 73 73 74 74 73 71 69 69 69 70 71 72 72 71 71 70 69 69 69 70 69 69 70 69 70 68 70 68 69 68 67 67 67 66 65 67 70 72 71 69 70 70 70 70 68 67 65 62 61 61 59 58 57 57 57 57 56 56 56 56 55 55 55 55 54 54 54 54 54
72 72 72 72 72 72 75 75 74 73 73 70 68 68 69 70 69 67 67 69 71 71 70 70 70 70 70 69 70 70 69 67 67 66 66 65 67 68 67 68 68 70 71 70 67 68 69 69 68 67 67 65 63 61 60 59 58 57 56 56 56 56 56 55 55 55 55 55 53 52 52 53 53 54
72 72 71 71 71 72 72 73 73 73 73 73 72 71 71 70 71 70 68 67 68 69 71 71 70 71 70 70 71 71 69 67 67 66 66 65 66 67 68 69 69 70 72 71 68 66 67 68 65 64 65 65 64 62 60 58 57 56 56 55 55 55 55 55 55 54 54 54 54 53 51 51 51 52
72 72 72 71 71 71 71 72 73 72 72 72 72 72 71 71 71 71 71 70 70 70 71 71 72 72 72 72 72 72 69 69 69 68 68 68 68 68 68 69 69 70 70 70 68 66 66 66 63 63 64 64 64 63 60 59 58 57 56 55 55 54 54 55 55 54 54 54 53 53 51 51 51 51
71 72 71 71 71 71 71 72 69 72 72 72 71 71 71 71 71 71 71 67 68 71 71 72 72 72 73 70 72 72 70 69 69 70 70 70 70 70 71 71 67 68 69 70 67 65 65 66 63 62 63 62 62 62 61 60 59 57 56 55 55 53 53 54 54 54 54 54 53 52 51 50 50 51
71 71 71 71 71 71 71 69 65 65 72 72 71 71 70 70 70 70 71 67 64 64 63 64 66 66 65 65 64 63 64 69 69 69 68 70 70 70 70 69 66 67 67 69 68 66 64 64 63 63 63 61 61 61 61 60 59 58 57 55 54 53 52 53 53 53 53 53 53 52 51 50 50 53
71 71 74 74 71 71 71 67 64 63 68 70 71 70 70 70 70 70 70 70 70 64 62 62 63 64 64 65 64 64 63 63 69 70 69 70 70 70 69 69 66 65 67 69 67 65 64 64 63 62 62 61 61 61 61 60 59 59 58 55 54 53 53 52 52 52 53 53 52 52 51 50 52 54
70 70 73 75 72 71 69 64 63 62 66 70 70 70 70 69 69 70 70 70 71 70 70 70 69 69 69 69 68 69 67 66 70 70 70 70 70 70 69 68 66 67 66 68 67 64 63 63 63 63 60 60 60 62 60 60 59 58 59 59 55 53 53 52 52 51 52 52 52 51 50 50 51 53
70 70 70 71 66 64 63 62 61 60 60 68 70 70 69 69 69 69 69 70 71 71 72 72 72 72 72 72 71 70 70 70 70 69 70 71 71 70 70 68 68 68 67 68 66 63 64 64 62 61 60 58 56 58 59 57 58 59 58 57 55 55 55 54 53 52 51 51 51 51 50 49 51 52
69 70 70 70 66 62 61 60 59 58 57 62 69 70 69 69 69 69 69 70 75 73 72 72 72 72 71 71 70 69 69 69 70 70 70 71 71 71 70 69 68 69 69 69 67 65 64 64 62 60 59 58 57 58 58 57 57 58 58 56 56 55 54 53 54 52 52 52 51 50 50 50 51 52
69 70 70 70 67 61 59 59 58 56 57 58 67 69 63 63 63 68 70 70 70 72 72 72 71 72 71 71 71 70 70 70 70 70 70 70 71 71 71 71 70 69 70 70 65 66 64 62 62 60 58 57 56 57 56 56 57 57 57 55 55 55 54 53 52 52 52 53 53 51 50 50 51 51
69 70 70 71 68 61 58 57 57 56 56 58 62 60 60 61 62 68 69 70 70 71 71 71 71 71 71 71 71 71 72 72 71 71 71 71 71 71 72 72 72 72 69 68 68 66 63 61 62 59 58 56 57 56 55 55 54 55 53 53 54 53 54 53 52 52 53 53 53 52 50 50 52 52
69 70 70 69 63 59 56 56 57 57 57 62 58 57 58 60 64 67 69 69 70 70 70 70 70 70 70 71 71 71 72 72 70 69 70 71 71 70 69 69 70 68 68 68 69 67 63 61 62 60 59 59 58 55 53 54 57 56 54 54 54 53 54 54 51 53 53 52 51 51 50 51 53 53
70 66 63 62 60 59 57 56 56 56 56 56 57 58 58 66 66 68 69 70 70 70 70 70 70 70 70 71 71 71 70 68 68 67 67 67 66 66 66 66 67 67 67 67 67 65 62 60 60 61 59 58 59 56 55 53 53 53 54 53 49 51 53 53 51 51 52 52 51 51 49 50 51 53
65 63 61 61 60 60 61 63 64 64 64 58 58 60 62 65 67 68 69 70 70 70 70 70 70 71 71 70 70 70 69 68 67 65 65 64 64 64 64 64 64 65 65 64 63 63 62 61 61 61 60 59 59 58 55 53 51 53 55 52 50 53 54 50 51 51 52 51 51 51 50 50 52 54
67 67 67 66 63 64 63 64 65 64 65 64 63 63 65 66 67 69 70 70 70 70 71 70 71 71 70 69 70 69 69 68 67 65 64 63 62 63 63 63 63 62 63 64 63 62 62 62 62 61 60 58 57 56 55 53 51 51 52 52 52 45 48 51 51 50 50 51 50 49 49 49 50 55
68 70 68 65 68 67 66 66 67 67 67 67 66 66 65 65 66 68 70 72 71 71 71 71 71 69 68 69 70 69 69 68 67 65 64 63 63 63 62 61 61 61 61 61 61 62 66 61 61 60 59 57 55 54 53 52 51 51 51 54 55 52 53 50 49 50 50 49 48 47 47 48 49 50
68 68 69 69 68 68 68 67 67 67 67 67 67 67 67 66 66 67 68 68 69 70 70 71 71 70 69 69 69 68 68 68 66 64 63 63 63 63 62 60 60 60 59 58 58 58 59 59 61 58 57 55 55 55 54 51 52 52 50 50 52 50 50 49 50 50 49 48 47 47 47 47 49 49
67 67 68 69 69 69 68 68 68 68 68 68 68 68 65 67 67 67 67 68 69 70 70 70 70 69 69 69 68 68 68 67 65 63 62 63 63 62 61 60 60 59 58 56 57 58 57 56 56 56 57 57 57 55 54 51 50 52 52 51 50 48 49 50 49 49 49 48 47 47 46 46 47 48
66 67 67 68 68 68 69 69 69 69 68 68 68 68 68 67 67 66 68 68 68 68 69 69 70 69 69 69 68 68 67 66 64 63 62 63 63 62 61 60 59 58 56 55 56 56 56 55 55 54 53 53 55 54 58 54 51 51 51 51 50 49 49 50 50 50 49 47 47 47 47 46 46 47
65 66 67 67 68 68 68 68 69 69 69 68 68 68 68 68 67 67 68 68 69 69 69 69 69 69 69 69 68 67 66 64 63 62 61 62 62 62 62 60 59 58 56 55 55 56 56 55 55 54 53 51 51 49 50 56 56 52 51 50 49 50 50 49 49 49 48 48 48 46 44 44 45 47
65 66 66 67 68 68 68 69 69 69 69 69 69 69 69 68 68 68 68 67 69 69 69 69 69 68 67 66 65 65 65 63 63 61 60 61 61 61 61 61 60 58 57 55 55 55 56 55 54 53 51 49 49 48 49 51 52 54 53 51 49 50 50 48 48 48 48 47 47 46 45 46 46 47
65 66 66 66 67 68 68 69 69 69 69 70 69 69 69 69 69 69 69 69 68 68 68 68 67 66 66 65 66 66 66 65 64 62 61 61 61 61 60 59 58 58 57 56 56 55 54 54 53 52 50 49 48 48 47 49 49 51 52 53 51 49 51 48 47 47 47 46 47 46 46 46 47 47
66 66 66 67 67 68 68 69 69 70 70 70 70 70 70 70 69 68 68 68 68 68 68 67 67 66 65 66 65 65 65 64 63 62 61 61 60 60 59 58 57 57 57 57 55 54 54 52 52 51 50 49 48 48 48 48 48 51 52 50 51 49 50 49 48 47 47 46 47 46 47 48 48 51
66 66 67 67 67 68 69 69 70 70 70 70 70 70 70 69 69 68 68 67 67 67 67 67 66 64 66 66 65 65 65 64 63 62 61 61 60 59 58 57 56 56 56 56 56 55 53 52 53 52 51 49 50 51 51 51 50 51 51 50 48 50 51 50 48 48 47 47 45 45 45 45 45 45
65 66 66 67 68 68 69 69 70 70 70 70 69 67 69 68 68 68 68 68 67 67 67 67 66 65 65 65 64 64 63 62 61 60 60 60 60 58 57 56 55 55 56 56 56 56 54 53 55 55 55 54 54 53 51 50 50 50 50 52 49 49 49 51 49 48 47 46 46 45 44 44 44 44
65 65 67 67 68 68 69 69 69 69 70 69 69 68 68 68 68 65 67 66 67 67 67 67 66 65 65 65 64 62 62 60 59 59 59 59 59 57 56 54 53 54 54 54 55 56 56 56 58 58 55 54 53 50 50 51 50 50 49 49 50 50 49 49 51 50 48 48 46 44 43 42 43 43
65 66 66 67 68 69 69 68 69 69 69 69 68 68 68 67 68 67 68 68 67 67 67 67 66 65 65 64 63 62 62 60 59 58 58 58 57 57 55 54 54 54 54 54 55 56 56 55 55 56 56 54 53 52 50 51 51 49 48 49 49 49 49 50 50 50 51 51 50 48 45 44 43 41
66 66 67 67 68 68 68 68 68 69 69 68 68 68 67 67 67 68 68 68 67 66 66 66 65 65 64 64 63 62 62 61 61 58 57 57 56 56 55 54 53 53 54 54 54 54 53 54 55 56 55 55 54 52 52 51 51 51 51 49 50 48 49 49 49 50 50 51 51 51 50 50 48 49
64 64 65 65 67 67 68 68 67 67 67 68 68 67 67 67 67 67 67 66 66 66 64 64 64 64 63 62 61 61 60 58 58 57 57 56 55 55 54 54 53 53 53 54 54 53 52 53 53 53 53 53 53 53 53 53 51 51 50 49 50 49 49 49 48 49 48 49 49 50 51 51 51 51